Location: Boussac
(44.2782°N, 2.3665°E)
Time: 20:54:55
(UTC+00:00)

Cosmos 1536 - Pass Details

Date: 15 May 2026
Orbit: 482 x 500 km, 82.5° (Epoch: 10 June)

Event Time Altitude Azimuth Distance (km) Brightness Sun altitude
Rises 21:32:14 0° 5° (N) 2,570 7.0 -19.6°
Reaches altitude 10° 21:34:46 10° 23° (NNE) 1,687 5.7 -19.9°
Enters shadow 21:37:23 20° 68° (ENE) 1,177 4.4 -20.1°
